Location: Bishop�s Knoyle
(51.0728°N, 2.1714°W)
Time: 13:18:03
(UTC+00:00)

BEESAT 2 - Pass Details

Date: 03 December 2021
Orbit: 498 x 513 km, 64.9° (Epoch: 24 January)

Event Time Altitude Azimuth Distance (km) Brightness Sun altitude
Exits shadow 04:36:53 17° 42° (NE) 1,353 ? -29.7°
Drops below altitude 10° 04:38:51 10° 71° (ENE) 1,749 ? -29.4°
Sets 04:41:34 0° 90° (E) 2,632 ? -29.0°
